Weather History for ESSB - February, 2014

Change the Weather History Date:

Wednesday, February 5, 2014

  Actual Average Record
Temperature  
Mean Temperature 33 °F -  
Max Temperature 34 °F 32 °F 41 °F (2002)
Min Temperature 32 °F 22 °F -7 °F (2001)
Degree Days  
Heating Degree Days 32    
Moisture  
Dew Point 30 °F    
Average Humidity 85    
Maximum Humidity 93    
Minimum Humidity 74    
Precipitation  
Precipitation 0.00 in - - ()
Sea Level Pressure  
Sea Level Pressure 29.79 in    
Wind  
Wind Speed 5 mph ()    
Max Wind Speed 9 mph    
Max Gust Speed -    
Visibility 4.1 miles    
Events      
Averages and records for this station are not official NWS values.
T = Trace of Precipitation, MM = Missing Value Source: Averaged Metar Reports

Daily Weather History Graph

Daily Weather History Graph

Search for Another Location

Airport or City:

Trip Planner

Search our weather history database for the weather conditions in past years. The results will help you decide how hot, cold, wet, or windy it might be!

Date:

Astronomy

Feb. 05, 2014 Rise Set
Actual Time 7:49 AM CET 4:15 PM CET
Civil Twilight 7:04 AM CET 5:01 PM CET
Nautical Twilight 6:15 AM CET 5:50 PM CET
Astronomical Twilight 5:28 AM CET 6:37 PM CET
Moon 9:15 AM CET (2/5) No Moon Set
Length of Visible Light 9h 56m
Length of Day
8h 25m
Waxing Crescent, 36% of the Moon is Illuminated
Feb 5
Waxing Crescent
Feb 6
First Quarter
Feb 15
Full
Feb 22
Last Quarter
Mar 1
New

Hourly Weather History & Observations

Time (CET) Temp. Windchill Dew Point Humidity Pressure Visibility Wind Dir Wind Speed Gust Speed Precip Events Conditions
12:00 AM 33 °F - 29 °F 81% 29.90 in 5 mi SSE 8.9 mph - -   Mist
12:20 AM 32.0 °F 25.6 °F 30.2 °F 93% 29.89 in 5.0 mi SSE 6.9 mph - N/A   Overcast
12:50 AM 32.0 °F 25.6 °F 30.2 °F 93% 29.89 in 5.0 mi SSE 6.9 mph - N/A   Overcast
1:00 AM 33 °F - 29 °F 82% 29.90 in 5 mi SSE 6.7 mph - -   Mist
1:20 AM 32.0 °F 26.4 °F 30.2 °F 93% 29.89 in 5.0 mi SSE 5.8 mph - N/A   Overcast
1:50 AM 33.8 °F 29.6 °F 30.2 °F 87% 29.86 in 5.0 mi SSE 4.6 mph - N/A   Overcast
2:00 AM 33 °F - 29 °F 81% 29.89 in 5 mi SE 4.5 mph - -   Mist
2:20 AM 32.0 °F 26.4 °F 30.2 °F 93% 29.86 in 4.3 mi ESE 5.8 mph - N/A   Overcast
2:50 AM 33.8 °F 28.6 °F 30.2 °F 87% 29.86 in 4.3 mi SE 5.8 mph - N/A   Overcast
3:00 AM 33 °F - 29 °F 82% 29.87 in 4 mi SE 6.7 mph - -   Mist
3:20 AM 33.8 °F 28.6 °F 30.2 °F 87% 29.86 in 4.3 mi SSE 5.8 mph - N/A   Overcast
3:50 AM 33.8 °F 27.0 °F 30.2 °F 87% 29.86 in 4.3 mi South 8.1 mph - N/A   Overcast
4:00 AM 33 °F - 29 °F 81% 29.86 in 4 mi SSE 4.5 mph - -   Mist
4:20 AM 33.8 °F 29.6 °F 30.2 °F 87% 29.86 in 4.3 mi South 4.6 mph - N/A   Overcast
4:50 AM 33.8 °F 29.6 °F 30.2 °F 87% 29.83 in 3.7 mi SSE 4.6 mph - N/A   Overcast
5:00 AM 33 °F - 29 °F 81% 29.85 in 4 mi SE 4.5 mph - -   Mist
5:20 AM 33.8 °F 28.6 °F 30.2 °F 87% 29.83 in 3.7 mi SSE 5.8 mph - N/A   Overcast
5:50 AM 33.8 °F 28.6 °F 30.2 °F 87% 29.83 in 5.0 mi SE 5.8 mph - N/A   Mostly Cloudy
6:00 AM 33 °F - 30 °F 82% 29.84 in 4 mi SE 4.5 mph - -   Mist
6:20 AM 33.8 °F 29.6 °F 30.2 °F 87% 29.83 in 5.0 mi SSE 4.6 mph - N/A   Mostly Cloudy
6:50 AM 33.8 °F 28.6 °F 30.2 °F 87% 29.83 in 5.0 mi SE 5.8 mph - N/A   Mostly Cloudy
7:00 AM 33 °F - 30 °F 83% 29.83 in 4 mi SE 6.7 mph - -   Mist
7:20 AM 33.8 °F 28.6 °F 30.2 °F 87% 29.83 in 5.0 mi SSE 5.8 mph - N/A   Overcast
7:50 AM 33.8 °F 28.6 °F 30.2 °F 87% 29.83 in 3.7 mi South 5.8 mph - N/A   Overcast
8:00 AM 33 °F - 30 °F 84% 29.83 in 4 mi South 6.7 mph - -   Mist
8:20 AM 33.8 °F 28.6 °F 30.2 °F 87% 29.83 in 3.7 mi South 5.8 mph - N/A   Overcast
8:50 AM 33.8 °F 29.6 °F 30.2 °F 87% 29.83 in 3.1 mi South 4.6 mph - N/A   Overcast
9:00 AM 33 °F - 30 °F 86% 29.83 in 3 mi South 4.5 mph - -   Mist
9:20 AM 33.8 °F 30.8 °F 30.2 °F 87% 29.80 in 3.1 mi South 3.5 mph - N/A   Overcast
9:50 AM 33.8 °F 30.8 °F 30.2 °F 87% 29.80 in 3.1 mi SSE 3.5 mph - N/A   Overcast
10:00 AM 34 °F - 31 °F 82% 29.82 in 3 mi South 2.2 mph - -   Mist
10:20 AM 33.8 °F - 30.2 °F 87% 29.80 in 3.1 mi Variable 2.3 mph - N/A   Overcast
10:50 AM 33.8 °F 29.6 °F 30.2 °F 87% 29.80 in 3.1 mi South 4.6 mph - N/A   Overcast
11:00 AM 34 °F - 31 °F 83% 29.82 in 4 mi South 2.2 mph - -   Mist
11:20 AM 33.8 °F 30.8 °F 30.2 °F 87% 29.80 in 3.7 mi South 3.5 mph - N/A   Overcast
11:50 AM 33.8 °F - 30.2 °F 87% 29.80 in 3.7 mi SSW 2.3 mph - N/A   Overcast
12:00 PM 35 °F - 31 °F 78% 29.81 in 4 mi South 2.2 mph - -   Mist
12:20 PM 35.6 °F 32.8 °F 30.2 °F 81% 29.80 in 3.7 mi SSW 3.5 mph - N/A   Overcast
12:50 PM 35.6 °F 31.7 °F 30.2 °F 81% 29.80 in 3.7 mi South 4.6 mph - N/A   Overcast
1:00 PM 35 °F - 30 °F 76% 29.80 in 4 mi South 2.2 mph - -   Mist
1:20 PM 35.6 °F - 30.2 °F 81% 29.77 in 3.7 mi Variable 2.3 mph - N/A   Overcast
1:50 PM 35.6 °F - 30.2 °F 81% 29.77 in 3.7 mi Variable 2.3 mph - N/A   Overcast
2:00 PM 35 °F - 30 °F 76% 29.78 in 4 mi SSW 2.2 mph - -   Mist
2:20 PM 35.6 °F 32.8 °F 30.2 °F 81% 29.77 in 3.7 mi SSW 3.5 mph - N/A   Overcast
2:50 PM 33.8 °F 30.8 °F 30.2 °F 87% 29.77 in 3.7 mi SW 3.5 mph - N/A   Overcast
3:00 PM 35 °F - 30 °F 74% 29.77 in 4 mi SSW 2.2 mph - -   Mist
3:20 PM 33.8 °F - 30.2 °F 87% 29.74 in 3.7 mi Variable 1.2 mph - N/A   Overcast
3:50 PM 33.8 °F - 30.2 °F 87% 29.74 in 3.7 mi Variable 1.2 mph - N/A   Overcast
4:00 PM 34 °F - 30 °F 80% 29.76 in 4 mi Calm Calm - -   Mist
4:20 PM 33.8 °F 29.6 °F 30.2 °F 87% 29.74 in 3.7 mi East 4.6 mph - N/A   Overcast
4:50 PM 33.8 °F 28.6 °F 30.2 °F 87% 29.74 in 3.7 mi ESE 5.8 mph - N/A   Overcast
5:00 PM 35 °F - 30 °F 76% 29.75 in 4 mi SE 6.7 mph - -   Mist
5:20 PM 33.8 °F 29.6 °F 30.2 °F 87% 29.74 in 3.7 mi SSE 4.6 mph - N/A   Overcast
5:50 PM 33.8 °F 27.0 °F 30.2 °F 87% 29.74 in 3.7 mi SE 8.1 mph - N/A   Overcast
6:00 PM 34 °F - 30 °F 80% 29.74 in 4 mi ESE 8.9 mph - -   Mist
6:20 PM 33.8 °F 27.7 °F 30.2 °F 87% 29.71 in 5.0 mi SE 6.9 mph - N/A   Overcast
6:50 PM 33.8 °F 27.0 °F 30.2 °F 87% 29.71 in 4.3 mi ESE 8.1 mph - N/A   Overcast
7:00 PM 34 °F - 30 °F 80% 29.73 in 4 mi ESE 8.9 mph - -   Mist
7:20 PM 33.8 °F 27.7 °F 30.2 °F 87% 29.71 in 5.0 mi SE 6.9 mph - N/A   Overcast
7:50 PM 33.8 °F 26.4 °F 30.2 °F 87% 29.71 in 5.0 mi SE 9.2 mph - N/A   Overcast
8:00 PM 34 °F - 31 °F 84% 29.72 in 3 mi ESE 8.9 mph - -   Mist
8:20 PM 33.8 °F 28.6 °F 32.0 °F 93% 29.71 in 4.3 mi ESE 5.8 mph - N/A   Overcast
8:50 PM 33.8 °F 27.7 °F 32.0 °F 93% 29.68 in 4.3 mi SE 6.9 mph - N/A   Overcast
9:00 PM 34 °F - 31 °F 85% 29.70 in 3 mi SE 6.7 mph - -   Mist
9:20 PM 33.8 °F 26.4 °F 32.0 °F 93% 29.68 in 4.3 mi ESE 9.2 mph - N/A   Overcast
9:50 PM 33.8 °F 27.7 °F 30.2 °F 87% 29.68 in 5.0 mi ESE 6.9 mph - N/A   Overcast
10:00 PM 34 °F - 31 °F 83% 29.70 in 4 mi SE 8.9 mph - -   Mist
10:20 PM 33.8 °F 27.0 °F 30.2 °F 87% 29.68 in 3.7 mi SE 8.1 mph - N/A   Overcast
10:50 PM 33.8 °F 26.4 °F 30.2 °F 87% 29.68 in 4.3 mi SE 9.2 mph - N/A   Overcast
11:00 PM 33 °F - 30 °F 84% 29.68 in 4 mi ESE 6.7 mph - -   Mist
11:20 PM 33.8 °F 27.0 °F 30.2 °F 87% 29.68 in 4.3 mi ESE 8.1 mph - N/A   Overcast
11:50 PM 33.8 °F 27.7 °F 30.2 °F 87% 29.65 in 4.3 mi ESE 6.9 mph - N/A   Overcast